Terminal Aerodrome Forecast
Issued by NWS Midland/Odessa, TX

Home | Current Version | Previous Version | Text Only | Print | Product List | Glossary On
Versions: 1 2 3 4 5 6 7 8 9 10 11 12 13 14 15 16 17 18 19
075
FTUS44 KMAF 170520
TAFMAF
TAF
KMAF 170520Z 1706/1806 VRB03KT P6SM OVC050
     FM171400 16007KT P6SM FEW120=

USA.gov is the U.S. government's official web portal to all federal, state and local government web resources and services.